SCP
0 0 0 0 0 0 0 0 0 0 0 0 0 0 0 0 0 0 0 0 0 0 0 0 0 0 0 0 0 0 0 0 0 0 0 0 0 0 0 0 0 0 0
0 0 0 0 0 0 0 0 0 0 0 0 0 0 0 0 0 0 0 0 0 0 0 0 0 0 0 0 0 0 0 0 0 0 0 0 0 0 0 0 0 0 0
0 0 0 0 0 0 0 0 0 0 0 0 0 0 0 0 0 0 0 0 0 0 0 0 0 0 0 0 0 0 0 0 0 0 0 0 0 0 0 0 0 0 0
0 0 0 0 0 0 0 0 0 0 0 0 0 0 0 0 0 0 0 0 0 0 0 0 0 0 0 0 0 0 0 0 0 0 0 0 0 0 0 0 0 0 0
0 0 0 0 0 0 0 0 0 0 0 0 0 0 0 0 0 0 0 0 0 0 0 0 0 0 0 0 0 0 0 0 0 0 0 0 0 0 0 0 0 0 0
0 0 0 0 0 0 0 0 0 0 0 0 0 0 0 0 0 0 0 0 0 0 0 0 0 0 0 0 0 0 0 0 0 0 0 0 0 0 0 0 0 0 0
0 0 0 0 0 0 0 0 0 0 0 0 0 0 0 0 0 0 0 0 0 0 0 0 0 0 0 0 0 0 0 0 0 0 0 0 0 0 0 0 0 0 0
0 0 0 0 0 0 0 0 0 0 0 0 0 0 0 0 0 0 0 0 0 0 0 0 0 0 0 0 0 0 0 0 0 0 0 0 0 0 0 0 0 0 0
0 0 0 0 0 0 0 0 0 0 0 0 0 0 0 0 0 0 0 0 0 0 0 0 0 0 0 0 0 0 0 0 0 0 0 0 0 0 0 0 0 0 0
0 0 0 0 0 0 0 0 0 0 0 0 0 0 0 0 0 0 0 0 0 0 0 0 0 0 0 0 0 0 0 0 0 0 0 0 0 0 0 0 0 0 0
0 0 0 0 0 0 0 0 0 0 0 0 0 0 0 0 0 0 0 0 0 0 0 0 0 0 0 0 0 0 0 0 0 0 0 0 0 0 0 0 0 0 0
0 0 0 0 0 0 0 0 0 0 0 0 0 0 0 0 0 0 0 0 0 0 0 0 0 0 0 0 0 0 0 0 0 0 0 0 0 0 0 0 0 0 0
0 0 0 0 0 0 0 0 0 0 0 0 0 0 0 0 0 0 0 0 0 0 0 0 0 0 0 0 0 0 0 0 0 0 0 0 0 0 0 0 0 0 0
0 0 0 0 0 0 0 0 0 0 0 0 0 0 0 0 0 0 0 0 0 0 0 0 0 0 0 0 0 0 0 0 0 0 0 0 0 0 0 0 0 0 0
0 0 0 0 0 0 0 0 0 0 0 0 0 0 0 0 0 0 0 0 0 0 0 0 0 0 0 0 0 0 0 0 0 0 0 0 0 0 0 0 0 0 0
0 0 0 0 0 0 0 0 0 0 0 0 0 0 0 0 0 0 0 0 0 0 0 0 0 0 0 0 0 0 0 0 0 0 0 0 0 0 0 0 0 0 0
0 0 0 0 0 0 0 0 0 0 0 0 0 0 0 0 0 0 0 0 0 0 0 0 0 0 0 0 0 0 0 0 0 0 0 0 0 0 0 0 0 0 0
0 0 0 0 0 0 0 0 0 0 0 0 0 0 0 0 0 0 0 0 0 0 0 0 0 0 0 0 0 0 0 0 0 0 0 0 0 0 0 0 0 0 0
0 0 0 0 0 0 0 0 0 0 0 0 0 0 0 0 0 0 0 0 0 0 0 0 0 0 0 0 0 0 0 0 0 0 0 0 0 0 0 0 0 0 0
0 0 0 0 0 0 0 0 0 0 0 0 0 0 0 0 0 0 0 0 0 0 0 0 0 0 0 0 0 0 0 0 0 0 0 0 0 0 0 0 0 0 0
0 0 0 0 0 0 0 0 0 0 0 0 0 0 0 0 0 0 0 0 0 0 0 0 0 0 0 0 0 0 0 0 0 0 0 0 0 0 0 0 0 0 0
0 0 0 0 0 0 0 0 0 0 0 0 0 0 0 0 0 0 0 0 0 0 0 0 0 0 0 0 0 0 0 0 0 0 0 0 0 0 0 0 0 0 0
0 0 0 0 0 0 0 0 0 0 0 0 0 0 0 0 0 0 0 0 0 0 0 0 0 0 0 0 0 0 0 0 0 0 0 0 0 0 0 0 0 0 0
1 1 1 1 1 1 1 0 0 0 0 0 0 0 0 0 0 0 0 0 0 0 0 0 0 0 0 0 0 0 0 0 0 0 0 0 0 0 0 0 0 0 0
1 1 1 1 1 1 1 1 1 0 0 0 0 0 0 0 0 0 0 0 0 0 0 0 0 0 0 0 0 0 0 0 0 0 0 0 0 0 0 0 0 0 0
1 1 1 1 1 1 1 1 1 1 0 0 0 0 0 0 0 0 0 0 0 0 0 0 0 0 0 0 0 0 0 0 0 0 0 0 0 0 0 0 0 0 0
Wind_Speed
5 7 7 5 6 6 6 6 7 7 7 7 8 9 9 10 10 10 10 10 10 9 9 9 9 9 9 9 9 9 9 9 9 9 8 8 8 8 8 8 8 8 11
6 7 8 5 6 6 7 7 7 7 7 7 7 8 9 9 10 10 10 9 9 9 8 8 8 9 9 8 8 9 9 9 9 9 9 9 9 7 7 6 2 6 10
7 7 8 6 6 6 7 6 7 7 7 7 7 8 8 8 9 9 9 9 8 8 7 8 8 8 9 8 8 8 8 8 9 9 9 8 9 8 7 6 6 7 8
7 7 7 7 6 6 7 7 7 6 7 7 7 7 7 8 8 9 9 8 7 7 7 7 8 8 9 8 8 8 8 8 8 9 7 6 7 10 8 7 7 7 7
7 6 9 7 7 7 7 7 7 6 6 7 7 7 7 8 8 8 8 7 7 6 6 6 7 7 7 7 7 7 7 7 8 8 5 5 5 10 8 7 7 7 7
8 7 10 7 7 7 7 7 7 6 6 6 6 6 7 7 8 7 7 6 6 5 6 6 6 6 6 6 6 7 7 7 8 6 5 4 5 10 8 8 7 7 7
8 7 10 9 8 7 7 7 7 6 6 6 6 6 6 6 7 6 6 5 5 5 6 6 6 6 6 5 6 6 7 7 6 4 4 4 5 9 8 8 8 7 7
8 8 9 10 8 8 7 6 6 6 5 5 5 5 5 5 5 5 5 4 4 4 4 5 5 6 5 5 6 6 7 8 7 5 4 4 7 8 8 8 8 8 8
7 8 7 8 9 9 7 6 5 5 5 5 4 4 4 4 4 5 4 4 3 3 3 4 5 5 6 6 6 6 7 8 6 4 5 4 8 8 8 8 8 8 8
6 6 6 6 6 6 8 7 5 5 4 4 3 3 3 4 5 5 5 5 4 4 4 4 5 5 6 6 7 7 8 9 7 6 4 5 9 8 8 8 9 8 8
5 4 4 5 5 4 4 7 6 6 5 4 4 4 3 2 3 4 4 3 4 4 4 4 4 4 5 7 8 8 9 5 5 4 3 7 8 8 9 9 9 9 9
6 5 4 3 4 4 3 4 3 3 4 2 2 2 1 1 1 1 5 4 4 4 5 4 5 6 7 5 7 10 5 5 4 3 3 8 8 8 8 8 9 9 9
6 5 5 4 3 3 3 2 2 1 2 2 2 1 1 0 1 1 1 3 4 4 3 4 5 3 2 1 2 3 3 4 3 3 4 7 7 8 8 7 8 8 9
5 5 4 4 3 2 1 2 2 1 1 1 3 0 1 1 1 1 1 1 0 1 0 0 1 1 1 2 2 2 3 3 2 1 3 6 6 7 7 7 7 8 9
5 5 4 3 3 2 1 1 1 1 1 2 1 1 1 1 1 1 1 1 1 1 0 1 1 1 1 2 2 2 2 2 2 2 2 6 7 6 7 7 8 9 10
5 4 4 4 4 3 2 1 1 1 2 1 1 2 1 1 1 1 1 1 1 1 1 1 1 0 0 0 1 1 2 2 1 2 2 5 8 7 7 7 8 8 9
6 5 5 5 4 4 3 2 2 1 2 1 2 2 1 1 2 1 1 1 2 1 1 0 0 0 0 1 1 1 1 1 1 1 1 1 4 6 6 6 7 8 10
6 6 5 4 5 5 3 2 1 1 1 1 1 1 1 2 2 2 2 2 2 1 1 1 1 0 0 0 0 1 1 1 1 2 2 1 1 2 5 6 6 7 8
6 6 6 5 5 5 4 3 2 1 1 1 1 1 1 1 1 1 2 2 2 1 1 2 2 1 0 0 1 1 1 1 1 1 1 1 1 2 2 5 6 5 6
7 6 6 6 6 5 4 3 2 1 1 1 1 1 1 1 1 2 1 1 2 1 1 1 1 1 1 1 1 1 1 1 1 1 2 1 1 2 2 2 4 6 7
7 7 7 6 6 5 4 3 3 3 2 1 1 1 1 1 1 1 1 0 2 1 2 2 1 0 0 0 1 2 2 2 2 1 1 1 1 1 1 2 2 2 4
8 8 7 7 7 6 4 3 2 2 2 1 1 2 1 1 1 1 1 1 1 1 1 2 1 2 1 0 2 1 1 3 2 2 2 2 1 1 2 3 3 3 3
8 8 7 7 7 6 5 4 3 3 2 2 1 1 1 0 0 2 1 2 2 2 1 1 2 1 1 1 1 2 2 1 1 2 1 1 1 2 2 2 3 3 3
8 8 8 8 7 7 6 5 5 3 3 2 2 1 1 1 0 1 1 1 2 1 1 1 2 2 2 1 0 1 2 2 2 1 2 2 2 2 2 2 2 3 3
8 8 8 8 8 7 7 6 6 4 3 3 2 2 1 1 1 0 0 1 1 1 2 3 2 3 2 2 2 1 1 1 3 3 2 2 2 1 1 2 2 2 2
8 8 8 8 7 7 8 7 6 5 4 3 3 3 2 2 1 1 1 0 1 1 1 1 2 1 2 3 3 2 2 2 2 2 3 3 3 2 2 1 2 2 2
Wind_Direction
123 116 116 111 110 112 111 112 112 116 121 125 130 138 139 139 144 144 142 141 140 141 144 146 144 141 139 137 134 133 133 133 132 127 126 129 130 130 136 143 160 142 124
120 119 124 115 110 110 113 113 111 117 121 126 131 136 141 141 144 145 143 143 142 143 146 148 147 145 143 141 139 138 138 141 142 141 146 146 141 140 142 149 163 111 133
122 122 130 118 117 113 115 117 114 118 121 124 132 138 141 142 142 145 143 142 143 144 146 148 149 149 148 147 145 145 147 150 153 157 173 164 144 149 150 151 138 134 141
123 129 121 118 119 120 121 120 118 119 119 123 130 135 138 138 138 140 147 149 146 147 146 146 151 152 151 154 154 151 154 160 165 180 187 158 147 144 156 154 150 153 152
124 125 113 124 121 119 122 124 124 123 120 122 125 128 133 137 136 137 146 149 149 148 150 149 149 153 156 159 160 160 163 169 181 205 177 152 144 141 158 159 157 162 163
128 126 116 129 123 120 121 124 126 125 124 122 123 123 123 132 136 141 144 144 153 157 155 155 154 159 158 158 163 165 170 183 199 192 171 169 152 147 162 168 168 170 169
127 122 119 126 123 120 119 119 126 127 125 123 121 123 123 126 134 142 141 148 156 164 169 166 163 162 165 165 171 178 184 197 215 190 172 177 147 149 170 177 176 178 176
124 123 122 130 125 120 118 119 123 128 126 124 121 121 125 127 137 143 149 154 155 154 162 173 175 173 176 177 179 182 191 213 202 194 186 175 140 161 181 186 184 183 185
121 123 123 132 137 136 125 120 121 125 128 125 123 122 125 132 141 152 157 161 165 169 183 188 184 185 186 187 189 190 198 223 224 195 194 172 145 173 190 194 192 192 191
119 121 124 127 125 138 137 133 131 130 130 134 130 129 143 166 167 169 173 170 176 182 197 200 194 191 192 196 197 198 205 221 217 204 199 153 154 181 197 199 199 198 195
126 127 123 126 132 132 129 130 148 150 149 170 161 163 198 183 156 169 134 152 186 195 200 197 194 187 196 196 200 208 216 219 210 214 205 134 165 189 202 202 203 200 199
136 134 126 130 131 135 124 128 147 158 142 162 121 143 169 111 97 114 138 179 193 203 202 195 198 204 216 194 186 206 217 218 217 211 163 145 176 197 205 204 203 202 200
133 134 136 132 128 129 125 128 122 129 128 142 119 127 74 63 103 102 152 173 187 200 197 179 203 214 218 210 210 204 217 229 220 215 150 154 183 203 209 208 205 205 203
140 140 132 130 137 131 111 118 135 127 112 102 118 171 106 61 21 41 2 37 146 155 109 271 231 204 238 224 223 228 219 230 224 209 155 164 184 204 212 212 207 206 206
152 147 140 137 139 141 144 206 137 117 107 115 104 116 11 51 40 39 37 15 357 13 66 253 227 179 200 202 218 216 226 240 250 233 160 168 186 201 210 214 211 209 208
166 161 157 164 157 159 164 178 175 157 140 120 109 81 26 24 25 356 28 18 4 357 8 324 341 202 242 173 221 247 252 239 227 243 225 178 184 195 209 216 215 211 211
174 174 175 174 170 176 185 195 174 181 156 149 118 101 58 36 38 350 359 349 2 357 351 318 10 330 222 204 205 216 223 250 205 224 231 220 188 181 192 208 213 209 208
182 177 185 185 172 174 183 201 189 191 166 158 140 121 82 41 24 335 345 357 358 332 350 347 331 357 55 10 284 262 199 191 204 213 208 199 217 198 178 188 203 208 210
188 186 186 189 180 175 172 179 185 170 170 147 115 82 93 78 36 328 350 3 326 343 335 330 39 336 75 165 194 189 228 215 208 195 207 208 190 227 196 167 184 193 199
190 190 188 184 180 177 172 170 179 173 173 182 130 89 72 81 52 318 286 351 313 336 339 12 14 359 294 237 221 145 203 186 191 164 227 193 199 211 209 191 190 184 188
195 193 190 190 179 180 178 183 179 176 179 156 157 131 140 139 124 303 318 28 310 347 340 335 319 212 203 236 208 172 169 176 163 174 201 211 189 199 200 207 230 226 181
195 197 192 190 184 187 179 183 179 167 165 152 148 132 167 191 283 195 336 312 347 334 346 340 329 325 2 11 300 269 192 167 179 160 184 195 219 222 216 208 210 220 242
197 195 194 189 182 186 180 177 166 166 170 162 173 167 158 194 315 352 5 333 347 330 29 356 337 340 341 1 344 312 303 335 102 145 170 181 220 251 245 230 225 216 226
196 190 189 183 181 179 182 185 189 192 187 174 185 161 163 167 180 0 350 357 344 1 20 324 33 327 316 316 202 303 322 341 301 236 190 180 191 235 266 264 246 221 220
194 188 182 179 179 178 184 185 196 199 191 171 170 155 197 155 166 250 337 351 353 7 20 356 0 329 323 317 310 285 256 243 264 278 275 267 234 231 232 240 260 257 233
190 185 176 174 177 178 184 187 193 192 187 177 177 174 194 174 174 169 200 286 297 5 12 330 322 322 329 325 311 307 291 286 280 278 272 266 272 267 261 259 258 257 250